Tracking 31027 objects as of 19-Jul-2025
HD Live streaming from Space Station
objects crossing your sky now

COSMOS 1867 COOLANT

Track COSMOS 1867 COOLANT now!
10-day predictions


NORAD ID: 39661
Int'l Code: 1987-060Y
Perigee: 774.4 km
Apogee: 795.4 km
Inclination: 65.0 °
Period: 100.4 minutes
Semi major axis: 7155 km
RCS: Unknown
Launch date: July 10, 1987
Source: Commonwealth of Independent States (former USSR) (CIS)
Launch site: TYURATAM MISSILE AND SPACE COMPLEX (TTMTR)

Note: This is SATELLITE DEBRIS
Your satellite tracking list
FLOCK 4V 13
Track 1 satellite(s)




NASA's NSSDC Master Catalog

Two Line Element Set (TLE):
1 39661U 87060Y   25199.48095861  .00000236  00000-0  11973-3 0  9998
2 39661  65.0061 224.7381 0014717 262.9363  97.0049 14.34190384588831
Source of the keplerian elements: AFSPC